FW0135 Weather Reports


Display with metric or nautical units.
time (UTC)temp
F
wind
direction
speed
MPH
gust
MPH
rain 1hr
in
rain 24hr
in
rain mn
in
humidity
%
barometer
mb
20260504200527 71 302 2.0 4.0 0.00 0.00 0.00 36 991.3
20260504200021 71 310 2.0 4.0 0.00 0.00 0.00 38 991.3
20260504195514 71 245 3.0 6.0 0.00 0.00 0.00 36 991.3
20260504195008 71 303 3.0 6.0 0.00 0.00 0.00 35 991.3
20260504194503 71 296 3.0 5.0 0.00 0.00 0.00 36 991.2
20260504193957 72 314 3.0 6.0 0.00 0.00 0.00 37 991.1
20260504193450 72 303 2.0 6.0 0.00 0.00 0.00 35 991.1
20260504192944 71 300 1.0 4.0 0.00 0.00 0.00 37 991.1
20260504192439 71 306 2.0 5.0 0.00 0.00 0.00 38 991.1
20260504191933 71 308 2.0 5.0 0.00 0.00 0.00 37 991.2
20260504191426 71 11 3.0 10.0 0.00 0.00 0.00 38 991.2
20260504190921 71 269 3.0 10.0 0.00 0.00 0.00 36 991.3
20260504190415 71 290 2.0 5.0 0.00 0.00 0.00 38 991.2
20260504185908 70 309 2.0 6.0 0.00 0.00 0.00 39 991.2
20260504185403 70 303 3.0 6.0 0.00 0.00 0.00 38 991.2
20260504184857 70 298 2.0 5.0 0.00 0.01 0.00 39 991.3
20260504184350 69 298 2.0 5.0 0.00 0.01 0.00 40 991.3
20260504183844 69 241 2.0 5.0 0.00 0.01 0.00 39 991.2
20260504183339 68 330 2.0 5.0 0.00 0.01 0.00 42 991.3
20260504182833 67 292 2.0 3.0 0.00 0.01 0.00 43 991.5
20260504182326 67 292 2.0 3.0 0.00 0.01 0.00 43 991.6
20260504181821 67 315 2.0 4.0 0.00 0.01 0.00 42 991.6
20260504181315 67 315 2.0 4.0 0.00 0.01 0.00 41 991.6
20260504180808 66 22 2.0 6.0 0.00 0.01 0.00 43 991.6
20260504180303 67 311 3.0 6.0 0.00 0.01 0.00 41 991.7
20260504175757 67 309 3.0 5.0 0.00 0.01 0.00 39 991.7
20260504175250 67 311 2.0 5.0 0.00 0.01 0.00 41 991.8
20260504174747 68 309 2.0 5.0 0.00 0.01 0.00 39 991.7
20260504174248 68 294 2.0 5.0 0.00 0.01 0.00 41 991.7
20260504173247 67 274 2.0 6.0 0.00 0.01 0.00 39 991.8
20260504172745 67 300 2.0 5.0 0.00 0.01 0.00 41 991.8
20260504172246 68 302 2.0 5.0 0.00 0.01 0.00 40 991.8
20260504171746 68 305 2.0 5.0 0.00 0.01 0.00 40 991.8
20260504171248 69 314 2.0 5.0 0.00 0.01 0.00 41 991.8
20260504170747 68 288 2.0 5.0 0.00 0.01 0.00 38 991.9
20260504170247 67 300 2.0 7.0 0.00 0.01 0.00 41 991.9
20260504160245 66 298 2.0 5.0 0.00 0.01 0.00 41 992.3
20260504150741 62 254 1.0 3.0 0.00 0.01 0.00 50 992.9
20260504150235 61 270 1.0 3.0 0.00 0.01 0.00 48 992.9
20260504141129 60 257 2.0 4.0 0.00 0.01 0.00 52 993.4
20260504140624 59 321 2.0 4.0 0.00 0.01 0.00 51 993.5
20260504130512 54 303 1.0 5.0 0.00 0.01 0.00 61 994.2
20260504100251 41 25 0.0 0.0 0.00 0.01 0.00 87 994.8
20260504081741 39 25 0.0 0.0 0.00 0.01 0.00 87 995.1
20260504081236 39 25 0.0 0.0 0.00 0.02 0.00 87 995.0
20260504080730 39 25 0.0 0.0 0.00 0.02 0.00 88 994.6
20260504080224 39 25 0.0 0.0 0.00 0.02 0.00 87 994.9
20260504070112 38 25 0.0 0.0 0.00 0.02 0.00 88 994.9
20260504045342 33 25 0.0 0.0 0.00 0.02 0.00 88 995.0
20260504044835 33 25 0.0 0.0 0.00 0.02 0.00 88 995.1
20260504044330 33 25 0.0 0.0 0.00 0.02 0.00 88 995.1
20260504043824 33 25 0.0 0.0 0.00 0.02 0.00 87 995.1
20260504043318 33 25 0.0 0.0 0.00 0.02 0.00 87 995.2
20260504042812 33 25 0.0 0.0 0.00 0.02 0.00 87 995.1
20260504042306 33 25 0.0 0.0 0.00 0.02 0.00 87 995.0
20260504041800 33 25 0.0 0.0 0.00 0.02 0.00 87 995.1
20260504041253 33 25 0.0 0.0 0.00 0.02 0.00 87 995.0
20260504040747 33 25 0.0 0.0 0.00 0.02 0.00 87 995.0
20260504040241 33 25 0.0 0.0 0.00 0.02 0.00 87 994.9
20260504035737 34 25 0.0 0.0 0.00 0.02 0.02 87 994.9
20260504034725 34 25 0.0 0.0 0.00 0.02 0.02 86 995.0
20260504034218 34 25 0.0 0.0 0.00 0.02 0.02 86 995.0
20260504032701 34 25 0.0 0.0 0.00 0.02 0.02 86 994.9
20260504032154 35 25 0.0 0.0 0.00 0.02 0.02 86 994.8
20260504031648 35 25 0.0 0.0 0.00 0.02 0.02 85 994.9
20260504031142 35 25 0.0 0.0 0.00 0.02 0.02 86 994.8
20260504030636 35 25 0.0 0.0 0.00 0.02 0.02 86 994.8
20260504030131 35 25 0.0 0.0 0.00 0.02 0.02 85 994.8
20260504025119 35 25 0.0 0.0 0.00 0.02 0.02 85 994.8
20260504024612 35 25 0.0 0.0 0.00 0.02 0.02 85 994.8
20260504024107 35 25 0.0 0.0 0.00 0.02 0.02 84 994.8
20260504023601 36 25 0.0 0.0 0.00 0.02 0.02 84 994.8
20260504023055 36 25 0.0 0.0 0.00 0.02 0.02 84 994.9
20260504022549 36 25 0.0 0.0 0.00 0.02 0.02 84 994.8
20260504022042 36 25 0.0 0.0 0.00 0.02 0.02 84 994.9
20260504021536 37 25 0.0 0.0 0.00 0.03 0.02 84 994.9
20260504020525 37 25 0.0 0.0 0.00 0.05 0.02 83 994.8
20260504020019 37 25 0.0 0.0 0.00 0.05 0.02 83 994.8
20260504015513 37 25 0.0 0.0 0.00 0.05 0.02 83 994.7
20260504015013 38 25 0.0 0.0 0.00 0.05 0.02 82 994.7
20260504014011 38 25 0.0 0.0 0.00 0.05 0.02 82 994.6
20260504013511 38 25 0.0 0.0 0.00 0.05 0.02 82 994.6
20260504013012 39 25 0.0 0.0 0.00 0.05 0.02 82 994.6
20260504012508 39 25 0.0 0.0 0.00 0.05 0.02 81 994.5
20260504011508 39 25 0.0 0.0 0.00 0.05 0.02 81 994.4
20260504010508 39 25 0.0 0.0 0.00 0.05 0.02 80 994.3
20260504010008 40 25 0.0 0.0 0.00 0.05 0.02 81 994.2
20260504005506 40 25 0.0 0.0 0.00 0.05 0.02 80 994.1
20260504005009 40 25 0.0 0.0 0.00 0.05 0.02 79 994.1
20260504004008 41 25 0.0 0.0 0.00 0.05 0.02 77 994.0
20260504003505 41 25 0.0 0.0 0.00 0.05 0.02 76 994.0
20260504003004 42 25 0.0 0.0 0.00 0.05 0.02 78 994.0
20260504002504 42 25 0.0 0.0 0.00 0.05 0.02 75 994.0
20260504002002 43 25 0.0 0.0 0.00 0.05 0.02 76 993.9
20260504001503 43 25 0.0 0.0 0.00 0.05 0.02 72 993.8
20260504000504 44 25 0.0 0.0 0.00 0.05 0.02 73 993.7
20260504000003 44 25 0.0 0.0 0.00 0.05 0.02 72 993.6
20260503235504 45 25 0.0 0.0 0.00 0.05 0.02 70 993.6
20260503235003 45 25 0.0 0.0 0.00 0.05 0.02 66 993.6
20260503234504 46 25 0.0 0.0 0.00 0.05 0.02 67 993.5
20260503234002 46 25 0.0 0.0 0.00 0.05 0.02 66 993.5
20260503233504 46 25 0.0 0.0 0.00 0.05 0.02 65 993.5
20260503233003 47 25 0.0 0.0 0.00 0.05 0.02 65 993.4
20260503232002 48 25 0.0 0.0 0.00 0.06 0.02 63 993.5
20260503231502 48 25 0.0 3.0 0.00 0.06 0.02 62 993.4
20260503231003 48 25 0.0 3.0 0.00 0.08 0.02 58 993.3
20260503225951 49 86 0.0 2.0 0.00 0.09 0.02 57 993.3
20260503225445 49 84 0.0 2.0 0.00 0.09 0.02 57 993.2
20260503224939 49 84 1.0 2.0 0.00 0.09 0.02 54 993.2
20260503224434 49 84 1.0 3.0 0.00 0.10 0.02 58 993.2
20260503223421 50 132 1.0 4.0 0.00 0.10 0.02 52 993.1
20260503222915 50 346 1.0 4.0 0.00 0.10 0.02 53 993.2
20260503222408 50 327 1.0 4.0 0.00 0.10 0.02 52 993.0
20260503221902 50 314 2.0 4.0 0.00 0.10 0.02 53 992.9
20260503221357 50 267 1.0 4.0 0.00 0.10 0.02 51 993.0
20260503220851 49 28 1.0 4.0 0.00 0.10 0.02 53 992.9
20260503220345 49 336 2.0 4.0 0.00 0.10 0.02 56 992.9
20260503214827 49 344 2.0 5.0 0.00 0.12 0.02 52 992.7
20260503214320 50 309 2.0 5.0 0.00 0.13 0.02 50 992.8
20260503213814 50 320 2.0 4.0 0.00 0.13 0.02 50 992.7
20260503212802 50 102 2.0 5.0 0.00 0.14 0.02 49 992.7
20260503212256 50 335 2.0 6.0 0.00 0.14 0.02 50 992.6
20260503211751 50 330 3.0 6.0 0.00 0.15 0.02 48 992.5
20260503211244 50 204 2.0 6.0 0.00 0.15 0.02 48 992.4
20260503210738 50 284 2.0 6.0 0.00 0.17 0.02 51 992.4
20260503210233 50 5 2.0 6.0 0.00 0.18 0.02 48 992.3
20260503205220 50 13 2.0 6.0 0.00 0.20 0.02 48 992.3
20260503204714 50 38 2.0 6.0 0.00 0.21 0.02 51 992.2
20260503204209 50 338 2.0 4.0 0.00 0.21 0.02 53 992.2
20260503203703 50 332 2.0 5.0 0.00 0.21 0.02 52 992.3
20260503203156 50 298 2.0 5.0 0.00 0.21 0.02 49 992.0
20260503202651 51 307 2.0 4.0 0.00 0.21 0.02 50 992.0
20260503201639 51 297 2.0 5.0 0.00 0.21 0.02 49 991.9
20260503201133 51 342 2.0 7.0 0.00 0.21 0.02 52 991.9